owner,sensor,date,latitude,longitude,vertical_datum,sea_water_temperature,qcFlag 
WAVCIS,ioos:station:WAVCIS:CSI16:1,2011-09-01T00:00:00Z,29.4012,-89.0355,10.0,30.504,11111222 
WAVCIS,ioos:station:WAVCIS:CSI16:1,2011-09-01T00:15:00Z,29.4012,-89.0355,10.0,30.486,11111222 
WAVCIS,ioos:station:WAVCIS:CSI16:1,2011-09-01T00:30:00Z,29.4012,-89.0355,10.0,30.475,11111222 
WAVCIS,ioos:station:WAVCIS:CSI16:1,2011-09-01T00:45:00Z,29.4012,-89.0355,10.0,30.468,11111222 
WAVCIS,ioos:station:WAVCIS:CSI16:1,2011-09-01T01:00:00Z,29.4012,-89.0355,10.0,30.448,11111222 
WAVCIS,ioos:station:WAVCIS:CSI16:1,2011-09-01T01:15:00Z,29.4012,-89.0355,10.0,30.434,11111222 
WAVCIS,ioos:station:WAVCIS:CSI16:1,2011-09-01T01:30:00Z,29.4012,-89.0355,10.0,30.402,11111222 
WAVCIS,ioos:station:WAVCIS:CSI16:1,2011-09-01T01:45:00Z,29.4012,-89.0355,10.0,30.376,11111222 
WAVCIS,ioos:station:WAVCIS:CSI16:1,2011-09-01T02:00:00Z,29.4012,-89.0355,10.0,30.346,11111222 
WAVCIS,ioos:station:WAVCIS:CSI16:1,2011-09-01T02:15:00Z,29.4012,-89.0355,10.0,30.312,11111222 
WAVCIS,ioos:station:WAVCIS:CSI16:1,2011-09-01T02:30:00Z,29.4012,-89.0355,10.0,30.258,11111222 
WAVCIS,ioos:station:WAVCIS:CSI16:1,2011-09-01T02:45:00Z,29.4012,-89.0355,10.0,30.241,11111222 
WAVCIS,ioos:station:WAVCIS:CSI16:1,2011-09-01T03:00:00Z,29.4012,-89.0355,10.0,30.221,11111222 
WAVCIS,ioos:station:WAVCIS:CSI16:1,2011-09-01T03:15:00Z,29.4012,-89.0355,10.0,30.188,11111222 
WAVCIS,ioos:station:WAVCIS:CSI16:1,2011-09-01T03:30:00Z,29.4012,-89.0355,10.0,30.169,11111222 
WAVCIS,ioos:station:WAVCIS:CSI16:1,2011-09-01T03:45:00Z,29.4012,-89.0355,10.0,30.144,11111222 
WAVCIS,ioos:station:WAVCIS:CSI16:1,2011-09-01T04:00:00Z,29.4012,-89.0355,10.0,30.102,11111222 
WAVCIS,ioos:station:WAVCIS:CSI16:1,2011-09-01T04:15:00Z,29.4012,-89.0355,10.0,30.061,11111222 
WAVCIS,ioos:station:WAVCIS:CSI16:1,2011-09-01T04:30:00Z,29.4012,-89.0355,10.0,30.02,11111222 
WAVCIS,ioos:station:WAVCIS:CSI16:1,2011-09-01T04:45:00Z,29.4012,-89.0355,10.0,30.14,11111222 
WAVCIS,ioos:station:WAVCIS:CSI16:1,2011-09-01T05:00:00Z,29.4012,-89.0355,10.0,30.146,11111222 
WAVCIS,ioos:station:WAVCIS:CSI16:1,2011-09-01T05:15:00Z,29.4012,-89.0355,10.0,30.133,11111222 
WAVCIS,ioos:station:WAVCIS:CSI16:1,2011-09-01T05:30:00Z,29.4012,-89.0355,10.0,30.13,11111222 
WAVCIS,ioos:station:WAVCIS:CSI16:1,2011-09-01T05:45:00Z,29.4012,-89.0355,10.0,30.127,11111222 
WAVCIS,ioos:station:WAVCIS:CSI16:1,2011-09-01T06:00:00Z,29.4012,-89.0355,10.0,30.158,11111222 
WAVCIS,ioos:station:WAVCIS:CSI16:1,2011-09-01T06:15:00Z,29.4012,-89.0355,10.0,30.144,11111222 
WAVCIS,ioos:station:WAVCIS:CSI16:1,2011-09-01T06:30:00Z,29.4012,-89.0355,10.0,30.155,11111222 
WAVCIS,ioos:station:WAVCIS:CSI16:1,2011-09-01T06:45:00Z,29.4012,-89.0355,10.0,30.164,11111222 
WAVCIS,ioos:station:WAVCIS:CSI16:1,2011-09-01T07:00:00Z,29.4012,-89.0355,10.0,30.158,11111222 
WAVCIS,ioos:station:WAVCIS:CSI16:1,2011-09-01T07:15:00Z,29.4012,-89.0355,10.0,30.138,11111222 
WAVCIS,ioos:station:WAVCIS:CSI16:1,2011-09-01T07:30:00Z,29.4012,-89.0355,10.0,30.132,11111222 
WAVCIS,ioos:station:WAVCIS:CSI16:1,2011-09-01T07:45:00Z,29.4012,-89.0355,10.0,30.115,11111222 
WAVCIS,ioos:station:WAVCIS:CSI16:1,2011-09-01T08:00:00Z,29.4012,-89.0355,10.0,30.092,11111222 
WAVCIS,ioos:station:WAVCIS:CSI16:1,2011-09-01T08:15:00Z,29.4012,-89.0355,10.0,30.077,11111222 
WAVCIS,ioos:station:WAVCIS:CSI16:1,2011-09-01T08:30:00Z,29.4012,-89.0355,10.0,30.066,11111222 
WAVCIS,ioos:station:WAVCIS:CSI16:1,2011-09-01T08:45:00Z,29.4012,-89.0355,10.0,30.057,11111222 
WAVCIS,ioos:station:WAVCIS:CSI16:1,2011-09-01T09:00:00Z,29.4012,-89.0355,10.0,30.031,11111222 
WAVCIS,ioos:station:WAVCIS:CSI16:1,2011-09-01T09:15:00Z,29.4012,-89.0355,10.0,30.028,11111222 
WAVCIS,ioos:station:WAVCIS:CSI16:1,2011-09-01T09:30:00Z,29.4012,-89.0355,10.0,30.006,11111222 
WAVCIS,ioos:station:WAVCIS:CSI16:1,2011-09-01T09:45:00Z,29.4012,-89.0355,10.0,29.992,11111222 
WAVCIS,ioos:station:WAVCIS:CSI16:1,2011-09-01T10:00:00Z,29.4012,-89.0355,10.0,29.982,11111222 
WAVCIS,ioos:station:WAVCIS:CSI16:1,2011-09-01T10:15:00Z,29.4012,-89.0355,10.0,29.97,11111222 
WAVCIS,ioos:station:WAVCIS:CSI16:1,2011-09-01T10:30:00Z,29.4012,-89.0355,10.0,29.942,11111222 
WAVCIS,ioos:station:WAVCIS:CSI16:1,2011-09-01T10:45:00Z,29.4012,-89.0355,10.0,29.924,11111222 
WAVCIS,ioos:station:WAVCIS:CSI16:1,2011-09-01T11:00:00Z,29.4012,-89.0355,10.0,29.921,11111222 
WAVCIS,ioos:station:WAVCIS:CSI16:1,2011-09-01T11:15:00Z,29.4012,-89.0355,10.0,29.909,11111222 
WAVCIS,ioos:station:WAVCIS:CSI16:1,2011-09-01T11:30:00Z,29.4012,-89.0355,10.0,29.899,11111222 
WAVCIS,ioos:station:WAVCIS:CSI16:1,2011-09-01T11:45:00Z,29.4012,-89.0355,10.0,29.869,11111222 
WAVCIS,ioos:station:WAVCIS:CSI16:1,2011-09-01T12:00:00Z,29.4012,-89.0355,10.0,29.865,11111222 
WAVCIS,ioos:station:WAVCIS:CSI16:1,2011-09-01T12:15:00Z,29.4012,-89.0355,10.0,29.86,11111222 
WAVCIS,ioos:station:WAVCIS:CSI16:1,2011-09-01T12:30:00Z,29.4012,-89.0355,10.0,29.846,11111222 
WAVCIS,ioos:station:WAVCIS:CSI16:1,2011-09-01T12:45:00Z,29.4012,-89.0355,10.0,29.839,11111222 
WAVCIS,ioos:station:WAVCIS:CSI16:1,2011-09-01T13:00:00Z,29.4012,-89.0355,10.0,29.822,11111222 
WAVCIS,ioos:station:WAVCIS:CSI16:1,2011-09-01T13:15:00Z,29.4012,-89.0355,10.0,29.808,11111222 
WAVCIS,ioos:station:WAVCIS:CSI16:1,2011-09-01T13:30:00Z,29.4012,-89.0355,10.0,29.786,11111222 
WAVCIS,ioos:station:WAVCIS:CSI16:1,2011-09-01T13:45:00Z,29.4012,-89.0355,10.0,29.769,11111222 
WAVCIS,ioos:station:WAVCIS:CSI16:1,2011-09-01T14:00:00Z,29.4012,-89.0355,10.0,29.763,11111222 
WAVCIS,ioos:station:WAVCIS:CSI16:1,2011-09-01T14:15:00Z,29.4012,-89.0355,10.0,29.743,11111222 
WAVCIS,ioos:station:WAVCIS:CSI16:1,2011-09-01T14:30:00Z,29.4012,-89.0355,10.0,29.728,11111222 
WAVCIS,ioos:station:WAVCIS:CSI16:1,2011-09-01T14:45:00Z,29.4012,-89.0355,10.0,29.726,11111222 
WAVCIS,ioos:station:WAVCIS:CSI16:1,2011-09-01T15:00:00Z,29.4012,-89.0355,10.0,29.717,11111222 
WAVCIS,ioos:station:WAVCIS:CSI16:1,2011-09-01T15:15:00Z,29.4012,-89.0355,10.0,29.717,11111222 
WAVCIS,ioos:station:WAVCIS:CSI16:1,2011-09-01T15:30:00Z,29.4012,-89.0355,10.0,29.791,11111222 
WAVCIS,ioos:station:WAVCIS:CSI16:1,2011-09-01T15:45:00Z,29.4012,-89.0355,10.0,29.834,11111222 
WAVCIS,ioos:station:WAVCIS:CSI16:1,2011-09-01T16:00:00Z,29.4012,-89.0355,10.0,29.776,11111222 
WAVCIS,ioos:station:WAVCIS:CSI16:1,2011-09-01T16:15:00Z,29.4012,-89.0355,10.0,29.794,11111222 
WAVCIS,ioos:station:WAVCIS:CSI16:1,2011-09-01T16:30:00Z,29.4012,-89.0355,10.0,29.849,11111222 
WAVCIS,ioos:station:WAVCIS:CSI16:1,2011-09-01T16:45:00Z,29.4012,-89.0355,10.0,29.805,11111222 
WAVCIS,ioos:station:WAVCIS:CSI16:1,2011-09-01T17:00:00Z,29.4012,-89.0355,10.0,29.782,11111222 
WAVCIS,ioos:station:WAVCIS:CSI16:1,2011-09-01T17:15:00Z,29.4012,-89.0355,10.0,29.733,11111222 
WAVCIS,ioos:station:WAVCIS:CSI16:1,2011-09-01T17:30:00Z,29.4012,-89.0355,10.0,29.72,11111222 
WAVCIS,ioos:station:WAVCIS:CSI16:1,2011-09-01T17:45:00Z,29.4012,-89.0355,10.0,29.704,11111222 
WAVCIS,ioos:station:WAVCIS:CSI16:1,2011-09-01T18:00:00Z,29.4012,-89.0355,10.0,29.674,11111222 
WAVCIS,ioos:station:WAVCIS:CSI16:1,2011-09-01T18:15:00Z,29.4012,-89.0355,10.0,29.67,11111222 
WAVCIS,ioos:station:WAVCIS:CSI16:1,2011-09-01T18:30:00Z,29.4012,-89.0355,10.0,29.665,11111222 
WAVCIS,ioos:station:WAVCIS:CSI16:1,2011-09-01T18:45:00Z,29.4012,-89.0355,10.0,29.633,11111222 
WAVCIS,ioos:station:WAVCIS:CSI16:1,2011-09-01T19:00:00Z,29.4012,-89.0355,10.0,29.614,11111222 
WAVCIS,ioos:station:WAVCIS:CSI16:1,2011-09-01T19:15:00Z,29.4012,-89.0355,10.0,29.606,11111222 
WAVCIS,ioos:station:WAVCIS:CSI16:1,2011-09-01T19:30:00Z,29.4012,-89.0355,10.0,29.609,11111222 
WAVCIS,ioos:station:WAVCIS:CSI16:1,2011-09-01T19:45:00Z,29.4012,-89.0355,10.0,29.606,11111222 
WAVCIS,ioos:station:WAVCIS:CSI16:1,2011-09-01T20:00:00Z,29.4012,-89.0355,10.0,29.611,11111222 
WAVCIS,ioos:station:WAVCIS:CSI16:1,2011-09-01T20:15:00Z,29.4012,-89.0355,10.0,29.618,11111222 
WAVCIS,ioos:station:WAVCIS:CSI16:1,2011-09-01T20:30:00Z,29.4012,-89.0355,10.0,29.622,11111222 
WAVCIS,ioos:station:WAVCIS:CSI16:1,2011-09-01T20:45:00Z,29.4012,-89.0355,10.0,29.611,11111222 
WAVCIS,ioos:station:WAVCIS:CSI16:1,2011-09-01T21:00:00Z,29.4012,-89.0355,10.0,29.546,11111222 
WAVCIS,ioos:station:WAVCIS:CSI16:1,2011-09-01T21:15:00Z,29.4012,-89.0355,10.0,29.533,11111222 
WAVCIS,ioos:station:WAVCIS:CSI16:1,2011-09-01T21:30:00Z,29.4012,-89.0355,10.0,29.544,11111222 
WAVCIS,ioos:station:WAVCIS:CSI16:1,2011-09-01T21:45:00Z,29.4012,-89.0355,10.0,29.517,11111222 
WAVCIS,ioos:station:WAVCIS:CSI16:1,2011-09-01T22:00:00Z,29.4012,-89.0355,10.0,29.497,11111222 
WAVCIS,ioos:station:WAVCIS:CSI16:1,2011-09-01T22:15:00Z,29.4012,-89.0355,10.0,29.485,11111222 
WAVCIS,ioos:station:WAVCIS:CSI16:1,2011-09-01T22:30:00Z,29.4012,-89.0355,10.0,29.48,11111222 
WAVCIS,ioos:station:WAVCIS:CSI16:1,2011-09-01T22:45:00Z,29.4012,-89.0355,10.0,29.487,11111222 
WAVCIS,ioos:station:WAVCIS:CSI16:1,2011-09-01T23:00:00Z,29.4012,-89.0355,10.0,29.491,11111222 
WAVCIS,ioos:station:WAVCIS:CSI16:1,2011-09-01T23:15:00Z,29.4012,-89.0355,10.0,29.487,11111222 
WAVCIS,ioos:station:WAVCIS:CSI16:1,2011-09-01T23:30:00Z,29.4012,-89.0355,10.0,29.486,11111222 
WAVCIS,ioos:station:WAVCIS:CSI16:1,2011-09-01T23:45:00Z,29.4012,-89.0355,10.0,29.462,11111222 
WAVCIS,ioos:station:WAVCIS:CSI16:1,2011-09-02T00:00:00Z,29.4012,-89.0355,10.0,29.524,11111222 
WAVCIS,ioos:station:WAVCIS:CSI16:1,2011-09-02T00:15:00Z,29.4012,-89.0355,10.0,29.54,11111222 
WAVCIS,ioos:station:WAVCIS:CSI16:1,2011-09-02T00:30:00Z,29.4012,-89.0355,10.0,29.555,11111222 
WAVCIS,ioos:station:WAVCIS:CSI16:1,2011-09-02T00:45:00Z,29.4012,-89.0355,10.0,29.524,11111222 
WAVCIS,ioos:station:WAVCIS:CSI16:1,2011-09-02T01:00:00Z,29.4012,-89.0355,10.0,29.492,11111222 
WAVCIS,ioos:station:WAVCIS:CSI16:1,2011-09-02T01:15:00Z,29.4012,-89.0355,10.0,29.472,11111222 
WAVCIS,ioos:station:WAVCIS:CSI16:1,2011-09-02T01:30:00Z,29.4012,-89.0355,10.0,29.443,11111222 
WAVCIS,ioos:station:WAVCIS:CSI16:1,2011-09-02T01:45:00Z,29.4012,-89.0355,10.0,29.417,11111222 
WAVCIS,ioos:station:WAVCIS:CSI16:1,2011-09-02T02:00:00Z,29.4012,-89.0355,10.0,29.387,11111222 
WAVCIS,ioos:station:WAVCIS:CSI16:1,2011-09-02T02:15:00Z,29.4012,-89.0355,10.0,29.388,11111222 
WAVCIS,ioos:station:WAVCIS:CSI16:1,2011-09-02T02:30:00Z,29.4012,-89.0355,10.0,29.373,11111222 
WAVCIS,ioos:station:WAVCIS:CSI16:1,2011-09-02T02:45:00Z,29.4012,-89.0355,10.0,29.379,11111222 
WAVCIS,ioos:station:WAVCIS:CSI16:1,2011-09-02T03:00:00Z,29.4012,-89.0355,10.0,29.369,11111222 
WAVCIS,ioos:station:WAVCIS:CSI16:1,2011-09-02T03:15:00Z,29.4012,-89.0355,10.0,29.355,11111222 
WAVCIS,ioos:station:WAVCIS:CSI16:1,2011-09-02T03:30:00Z,29.4012,-89.0355,10.0,29.344,11111222 
WAVCIS,ioos:station:WAVCIS:CSI16:1,2011-09-02T03:45:00Z,29.4012,-89.0355,10.0,29.321,11111222 
WAVCIS,ioos:station:WAVCIS:CSI16:1,2011-09-02T04:00:00Z,29.4012,-89.0355,10.0,29.314,11111222 
WAVCIS,ioos:station:WAVCIS:CSI16:1,2011-09-02T04:15:00Z,29.4012,-89.0355,10.0,29.302,11111222 
WAVCIS,ioos:station:WAVCIS:CSI16:1,2011-09-02T04:30:00Z,29.4012,-89.0355,10.0,29.264,11111222 
WAVCIS,ioos:station:WAVCIS:CSI16:1,2011-09-02T04:45:00Z,29.4012,-89.0355,10.0,29.363,11111222 
WAVCIS,ioos:station:WAVCIS:CSI16:1,2011-09-02T05:00:00Z,29.4012,-89.0355,10.0,29.359,11111222 
WAVCIS,ioos:station:WAVCIS:CSI16:1,2011-09-02T05:15:00Z,29.4012,-89.0355,10.0,29.374,11111222 
WAVCIS,ioos:station:WAVCIS:CSI16:1,2011-09-02T05:30:00Z,29.4012,-89.0355,10.0,29.374,11111222 
WAVCIS,ioos:station:WAVCIS:CSI16:1,2011-09-02T05:45:00Z,29.4012,-89.0355,10.0,29.375,11111222 
WAVCIS,ioos:station:WAVCIS:CSI16:1,2011-09-02T06:00:00Z,29.4012,-89.0355,10.0,29.36,11111222 
WAVCIS,ioos:station:WAVCIS:CSI16:1,2011-09-02T06:15:00Z,29.4012,-89.0355,10.0,29.35,11111222 
WAVCIS,ioos:station:WAVCIS:CSI16:1,2011-09-02T06:30:00Z,29.4012,-89.0355,10.0,29.344,11111222 
WAVCIS,ioos:station:WAVCIS:CSI16:1,2011-09-02T06:45:00Z,29.4012,-89.0355,10.0,29.333,11111222 
WAVCIS,ioos:station:WAVCIS:CSI16:1,2011-09-02T07:00:00Z,29.4012,-89.0355,10.0,29.329,11111222 
WAVCIS,ioos:station:WAVCIS:CSI16:1,2011-09-02T07:15:00Z,29.4012,-89.0355,10.0,29.326,11111222 
WAVCIS,ioos:station:WAVCIS:CSI16:1,2011-09-02T07:30:00Z,29.4012,-89.0355,10.0,29.313,11111222 
WAVCIS,ioos:station:WAVCIS:CSI16:1,2011-09-02T07:45:00Z,29.4012,-89.0355,10.0,29.308,11111222 
WAVCIS,ioos:station:WAVCIS:CSI16:1,2011-09-02T08:00:00Z,29.4012,-89.0355,10.0,29.295,11111222 
WAVCIS,ioos:station:WAVCIS:CSI16:1,2011-09-02T08:15:00Z,29.4012,-89.0355,10.0,29.275,11111222 
WAVCIS,ioos:station:WAVCIS:CSI16:1,2011-09-02T08:30:00Z,29.4012,-89.0355,10.0,29.263,11111222 
WAVCIS,ioos:station:WAVCIS:CSI16:1,2011-09-02T08:45:00Z,29.4012,-89.0355,10.0,29.243,11111222 
WAVCIS,ioos:station:WAVCIS:CSI16:1,2011-09-02T09:00:00Z,29.4012,-89.0355,10.0,29.09,11111222 
WAVCIS,ioos:station:WAVCIS:CSI16:1,2011-09-02T09:15:00Z,29.4012,-89.0355,10.0,29.09,11111222 
WAVCIS,ioos:station:WAVCIS:CSI16:1,2011-09-02T09:30:00Z,29.4012,-89.0355,10.0,29.082,11111222 
WAVCIS,ioos:station:WAVCIS:CSI16:1,2011-09-02T09:45:00Z,29.4012,-89.0355,10.0,29.096,11111222 
WAVCIS,ioos:station:WAVCIS:CSI16:1,2011-09-02T10:00:00Z,29.4012,-89.0355,10.0,29.068,11111222 
WAVCIS,ioos:station:WAVCIS:CSI16:1,2011-09-02T10:15:00Z,29.4012,-89.0355,10.0,29.082,11111222 
WAVCIS,ioos:station:WAVCIS:CSI16:1,2011-09-02T10:30:00Z,29.4012,-89.0355,10.0,29.075,11111222 
WAVCIS,ioos:station:WAVCIS:CSI16:1,2011-09-02T10:45:00Z,29.4012,-89.0355,10.0,29.06,11111222 
WAVCIS,ioos:station:WAVCIS:CSI16:1,2011-09-02T11:00:00Z,29.4012,-89.0355,10.0,29.042,11111222 
WAVCIS,ioos:station:WAVCIS:CSI16:1,2011-09-02T11:15:00Z,29.4012,-89.0355,10.0,29.056,11111222 
WAVCIS,ioos:station:WAVCIS:CSI16:1,2011-09-02T11:30:00Z,29.4012,-89.0355,10.0,29.056,11111222 
WAVCIS,ioos:station:WAVCIS:CSI16:1,2011-09-02T11:45:00Z,29.4012,-89.0355,10.0,29.042,11111222 
WAVCIS,ioos:station:WAVCIS:CSI16:1,2011-09-02T12:00:00Z,29.4012,-89.0355,10.0,29.016,11111222 
WAVCIS,ioos:station:WAVCIS:CSI16:1,2011-09-02T12:15:00Z,29.4012,-89.0355,10.0,29.029,11111222 
WAVCIS,ioos:station:WAVCIS:CSI16:1,2011-09-02T12:30:00Z,29.4012,-89.0355,10.0,29.048,11111222 
WAVCIS,ioos:station:WAVCIS:CSI16:1,2011-09-02T12:45:00Z,29.4012,-89.0355,10.0,29.097,11111222 
WAVCIS,ioos:station:WAVCIS:CSI16:1,2011-09-02T13:00:00Z,29.4012,-89.0355,10.0,29.099,11111222 
WAVCIS,ioos:station:WAVCIS:CSI16:1,2011-09-02T13:15:00Z,29.4012,-89.0355,10.0,29.124,11111222 
WAVCIS,ioos:station:WAVCIS:CSI16:1,2011-09-02T13:30:00Z,29.4012,-89.0355,10.0,29.119,11111222 
WAVCIS,ioos:station:WAVCIS:CSI16:1,2011-09-02T13:45:00Z,29.4012,-89.0355,10.0,29.105,11111222 
WAVCIS,ioos:station:WAVCIS:CSI16:1,2011-09-02T14:00:00Z,29.4012,-89.0355,10.0,29.107,11111222 
WAVCIS,ioos:station:WAVCIS:CSI16:1,2011-09-02T14:15:00Z,29.4012,-89.0355,10.0,29.106,11111222 
WAVCIS,ioos:station:WAVCIS:CSI16:1,2011-09-02T14:30:00Z,29.4012,-89.0355,10.0,29.087,11111222 
WAVCIS,ioos:station:WAVCIS:CSI16:1,2011-09-02T14:45:00Z,29.4012,-89.0355,10.0,29.107,11111222 
WAVCIS,ioos:station:WAVCIS:CSI16:1,2011-09-02T15:00:00Z,29.4012,-89.0355,10.0,29.142,11111222 
WAVCIS,ioos:station:WAVCIS:CSI16:1,2011-09-02T15:15:00Z,29.4012,-89.0355,10.0,29.116,11111222 
WAVCIS,ioos:station:WAVCIS:CSI16:1,2011-09-02T15:30:00Z,29.4012,-89.0355,10.0,29.109,11111222 
WAVCIS,ioos:station:WAVCIS:CSI16:1,2011-09-02T15:45:00Z,29.4012,-89.0355,10.0,29.099,11111222 
WAVCIS,ioos:station:WAVCIS:CSI16:1,2011-09-02T16:00:00Z,29.4012,-89.0355,10.0,29.079,11111222 
WAVCIS,ioos:station:WAVCIS:CSI16:1,2011-09-02T16:15:00Z,29.4012,-89.0355,10.0,29.059,11111222 
WAVCIS,ioos:station:WAVCIS:CSI16:1,2011-09-02T16:30:00Z,29.4012,-89.0355,10.0,29.045,11111222 
WAVCIS,ioos:station:WAVCIS:CSI16:1,2011-09-02T16:45:00Z,29.4012,-89.0355,10.0,29.028,11111222 
WAVCIS,ioos:station:WAVCIS:CSI16:1,2011-09-02T17:00:00Z,29.4012,-89.0355,10.0,29.016,11111222 
WAVCIS,ioos:station:WAVCIS:CSI16:1,2011-09-02T17:15:00Z,29.4012,-89.0355,10.0,29.014,11111222 
WAVCIS,ioos:station:WAVCIS:CSI16:1,2011-09-02T17:30:00Z,29.4012,-89.0355,10.0,29.011,11111222 
WAVCIS,ioos:station:WAVCIS:CSI16:1,2011-09-02T17:45:00Z,29.4012,-89.0355,10.0,29.002,11111222 
WAVCIS,ioos:station:WAVCIS:CSI16:1,2011-09-02T18:00:00Z,29.4012,-89.0355,10.0,28.994,11111222 
WAVCIS,ioos:station:WAVCIS:CSI16:1,2011-09-02T18:15:00Z,29.4012,-89.0355,10.0,28.981,11111222 
WAVCIS,ioos:station:WAVCIS:CSI16:1,2011-09-02T18:30:00Z,29.4012,-89.0355,10.0,28.975,11111222 
WAVCIS,ioos:station:WAVCIS:CSI16:1,2011-09-02T18:45:00Z,29.4012,-89.0355,10.0,28.963,11111222 
WAVCIS,ioos:station:WAVCIS:CSI16:1,2011-09-02T19:00:00Z,29.4012,-89.0355,10.0,28.948,11111222 
WAVCIS,ioos:station:WAVCIS:CSI16:1,2011-09-02T19:15:00Z,29.4012,-89.0355,10.0,28.945,11111222 
WAVCIS,ioos:station:WAVCIS:CSI16:1,2011-09-02T19:30:00Z,29.4012,-89.0355,10.0,28.934,11111222 
WAVCIS,ioos:station:WAVCIS:CSI16:1,2011-09-02T19:45:00Z,29.4012,-89.0355,10.0,28.927,11111222 
WAVCIS,ioos:station:WAVCIS:CSI16:1,2011-09-02T20:00:00Z,29.4012,-89.0355,10.0,28.922,11111222 
WAVCIS,ioos:station:WAVCIS:CSI16:1,2011-09-02T20:15:00Z,29.4012,-89.0355,10.0,28.918,11111222 
WAVCIS,ioos:station:WAVCIS:CSI16:1,2011-09-02T20:30:00Z,29.4012,-89.0355,10.0,28.909,11111222 
WAVCIS,ioos:station:WAVCIS:CSI16:1,2011-09-02T20:45:00Z,29.4012,-89.0355,10.0,28.904,11111222 
WAVCIS,ioos:station:WAVCIS:CSI16:1,2011-09-02T21:00:00Z,29.4012,-89.0355,10.0,28.89,11111222 
WAVCIS,ioos:station:WAVCIS:CSI16:1,2011-09-02T21:15:00Z,29.4012,-89.0355,10.0,28.885,11111222 
WAVCIS,ioos:station:WAVCIS:CSI16:1,2011-09-02T21:30:00Z,29.4012,-89.0355,10.0,28.868,11111222 
WAVCIS,ioos:station:WAVCIS:CSI16:1,2011-09-02T21:45:00Z,29.4012,-89.0355,10.0,28.862,11111222 
WAVCIS,ioos:station:WAVCIS:CSI16:1,2011-09-02T22:00:00Z,29.4012,-89.0355,10.0,28.857,11111222 
WAVCIS,ioos:station:WAVCIS:CSI16:1,2011-09-02T22:15:00Z,29.4012,-89.0355,10.0,28.855,11111222 
WAVCIS,ioos:station:WAVCIS:CSI16:1,2011-09-02T22:30:00Z,29.4012,-89.0355,10.0,28.857,11111222 
WAVCIS,ioos:station:WAVCIS:CSI16:1,2011-09-02T22:45:00Z,29.4012,-89.0355,10.0,28.855,11111222 
WAVCIS,ioos:station:WAVCIS:CSI16:1,2011-09-02T23:00:00Z,29.4012,-89.0355,10.0,28.846,11111222 
WAVCIS,ioos:station:WAVCIS:CSI16:1,2011-09-02T23:15:00Z,29.4012,-89.0355,10.0,28.871,11111222 
WAVCIS,ioos:station:WAVCIS:CSI16:1,2011-09-02T23:30:00Z,29.4012,-89.0355,10.0,28.858,11111222 
WAVCIS,ioos:station:WAVCIS:CSI16:1,2011-09-02T23:45:00Z,29.4012,-89.0355,10.0,28.851,11111222 
WAVCIS,ioos:station:WAVCIS:CSI16:1,2011-09-03T00:00:00Z,29.4012,-89.0355,10.0,28.842,11111222 
WAVCIS,ioos:station:WAVCIS:CSI16:1,2011-09-03T00:15:00Z,29.4012,-89.0355,10.0,28.836,11111222 
WAVCIS,ioos:station:WAVCIS:CSI16:1,2011-09-03T00:30:00Z,29.4012,-89.0355,10.0,28.829,11111222 
WAVCIS,ioos:station:WAVCIS:CSI16:1,2011-09-03T00:45:00Z,29.4012,-89.0355,10.0,28.799,11111222 
WAVCIS,ioos:station:WAVCIS:CSI16:1,2011-09-03T01:00:00Z,29.4012,-89.0355,10.0,28.78,11111222 
WAVCIS,ioos:station:WAVCIS:CSI16:1,2011-09-03T01:15:00Z,29.4012,-89.0355,10.0,28.765,11111222 
WAVCIS,ioos:station:WAVCIS:CSI16:1,2011-09-03T01:30:00Z,29.4012,-89.0355,10.0,28.764,11111222 
WAVCIS,ioos:station:WAVCIS:CSI16:1,2011-09-03T01:45:00Z,29.4012,-89.0355,10.0,28.766,11111222 
WAVCIS,ioos:station:WAVCIS:CSI16:1,2011-09-03T02:00:00Z,29.4012,-89.0355,10.0,28.744,11111222 
WAVCIS,ioos:station:WAVCIS:CSI16:1,2011-09-03T02:15:00Z,29.4012,-89.0355,10.0,28.717,11111222 
WAVCIS,ioos:station:WAVCIS:CSI16:1,2011-09-03T02:30:00Z,29.4012,-89.0355,10.0,28.714,11111222 
WAVCIS,ioos:station:WAVCIS:CSI16:1,2011-09-03T02:45:00Z,29.4012,-89.0355,10.0,28.702,11111222 
WAVCIS,ioos:station:WAVCIS:CSI16:1,2011-09-03T03:00:00Z,29.4012,-89.0355,10.0,28.708,11111222 
WAVCIS,ioos:station:WAVCIS:CSI16:1,2011-09-03T03:15:00Z,29.4012,-89.0355,10.0,28.71,11111222 
WAVCIS,ioos:station:WAVCIS:CSI16:1,2011-09-03T03:30:00Z,29.4012,-89.0355,10.0,28.68,11111222 
WAVCIS,ioos:station:WAVCIS:CSI16:1,2011-09-03T03:45:00Z,29.4012,-89.0355,10.0,28.668,11111222 
WAVCIS,ioos:station:WAVCIS:CSI16:1,2011-09-03T04:00:00Z,29.4012,-89.0355,10.0,28.652,11111222 
WAVCIS,ioos:station:WAVCIS:CSI16:1,2011-09-03T04:15:00Z,29.4012,-89.0355,10.0,28.624,11111222 
WAVCIS,ioos:station:WAVCIS:CSI16:1,2011-09-03T04:30:00Z,29.4012,-89.0355,10.0,28.601,11111222 
WAVCIS,ioos:station:WAVCIS:CSI16:1,2011-09-03T04:45:00Z,29.4012,-89.0355,10.0,28.593,11111222 
WAVCIS,ioos:station:WAVCIS:CSI16:1,2011-09-03T05:00:00Z,29.4012,-89.0355,10.0,28.585,11111222 
WAVCIS,ioos:station:WAVCIS:CSI16:1,2011-09-03T05:15:00Z,29.4012,-89.0355,10.0,28.579,11111222 
WAVCIS,ioos:station:WAVCIS:CSI16:1,2011-09-03T05:30:00Z,29.4012,-89.0355,10.0,28.585,11111222 
WAVCIS,ioos:station:WAVCIS:CSI16:1,2011-09-03T05:45:00Z,29.4012,-89.0355,10.0,28.603,11111222 
WAVCIS,ioos:station:WAVCIS:CSI16:1,2011-09-03T06:00:00Z,29.4012,-89.0355,10.0,28.575,11111222 
WAVCIS,ioos:station:WAVCIS:CSI16:1,2011-09-03T06:15:00Z,29.4012,-89.0355,10.0,28.562,11111222 
WAVCIS,ioos:station:WAVCIS:CSI16:1,2011-09-03T06:30:00Z,29.4012,-89.0355,10.0,28.548,11111222 
WAVCIS,ioos:station:WAVCIS:CSI16:1,2011-09-03T06:45:00Z,29.4012,-89.0355,10.0,28.505,11111222 
WAVCIS,ioos:station:WAVCIS:CSI16:1,2011-09-03T07:00:00Z,29.4012,-89.0355,10.0,28.463,11111222 
WAVCIS,ioos:station:WAVCIS:CSI16:1,2011-09-03T07:15:00Z,29.4012,-89.0355,10.0,28.438,11111222 
WAVCIS,ioos:station:WAVCIS:CSI16:1,2011-09-03T07:30:00Z,29.4012,-89.0355,10.0,28.423,11111222 
WAVCIS,ioos:station:WAVCIS:CSI16:1,2011-09-03T07:45:00Z,29.4012,-89.0355,10.0,28.401,11111222 
WAVCIS,ioos:station:WAVCIS:CSI16:1,2011-09-03T08:00:00Z,29.4012,-89.0355,10.0,28.395,11111222 
WAVCIS,ioos:station:WAVCIS:CSI16:1,2011-09-03T08:15:00Z,29.4012,-89.0355,10.0,28.379,11111222 
WAVCIS,ioos:station:WAVCIS:CSI16:1,2011-09-03T08:30:00Z,29.4012,-89.0355,10.0,28.367,11111222 
WAVCIS,ioos:station:WAVCIS:CSI16:1,2011-09-03T08:45:00Z,29.4012,-89.0355,10.0,28.348,11111222 
WAVCIS,ioos:station:WAVCIS:CSI16:1,2011-09-03T09:00:00Z,29.4012,-89.0355,10.0,28.341,11111222 
WAVCIS,ioos:station:WAVCIS:CSI16:1,2011-09-03T09:15:00Z,29.4012,-89.0355,10.0,28.321,11111222 
WAVCIS,ioos:station:WAVCIS:CSI16:1,2011-09-03T09:30:00Z,29.4012,-89.0355,10.0,28.322,11111222 
WAVCIS,ioos:station:WAVCIS:CSI16:1,2011-09-03T09:45:00Z,29.4012,-89.0355,10.0,28.316,11111222 
WAVCIS,ioos:station:WAVCIS:CSI16:1,2011-09-03T10:00:00Z,29.4012,-89.0355,10.0,28.317,11111222 
WAVCIS,ioos:station:WAVCIS:CSI16:1,2011-09-03T10:15:00Z,29.4012,-89.0355,10.0,28.303,11111222 
WAVCIS,ioos:station:WAVCIS:CSI16:1,2011-09-03T10:30:00Z,29.4012,-89.0355,10.0,28.297,11111222 
WAVCIS,ioos:station:WAVCIS:CSI16:1,2011-09-03T10:45:00Z,29.4012,-89.0355,10.0,28.286,11111222 
WAVCIS,ioos:station:WAVCIS:CSI16:1,2011-09-03T11:00:00Z,29.4012,-89.0355,10.0,28.274,11111222 
WAVCIS,ioos:station:WAVCIS:CSI16:1,2011-09-03T11:15:00Z,29.4012,-89.0355,10.0,28.274,11111222 
WAVCIS,ioos:station:WAVCIS:CSI16:1,2011-09-03T11:30:00Z,29.4012,-89.0355,10.0,28.264,11111222 
WAVCIS,ioos:station:WAVCIS:CSI16:1,2011-09-03T11:45:00Z,29.4012,-89.0355,10.0,28.255,11111222 
WAVCIS,ioos:station:WAVCIS:CSI16:1,2011-09-03T12:00:00Z,29.4012,-89.0355,10.0,28.383,11111222 
WAVCIS,ioos:station:WAVCIS:CSI16:1,2011-09-03T12:15:00Z,29.4012,-89.0355,10.0,28.357,11111222 
WAVCIS,ioos:station:WAVCIS:CSI16:1,2011-09-03T12:30:00Z,29.4012,-89.0355,10.0,28.242,11111222 
WAVCIS,ioos:station:WAVCIS:CSI16:1,2011-09-03T12:45:00Z,29.4012,-89.0355,10.0,28.234,11111222 
WAVCIS,ioos:station:WAVCIS:CSI16:1,2011-09-03T13:00:00Z,29.4012,-89.0355,10.0,28.18,11111222 
WAVCIS,ioos:station:WAVCIS:CSI16:1,2011-09-03T13:15:00Z,29.4012,-89.0355,10.0,28.16,11111222 
WAVCIS,ioos:station:WAVCIS:CSI16:1,2011-09-03T13:30:00Z,29.4012,-89.0355,10.0,28.153,11111222 
WAVCIS,ioos:station:WAVCIS:CSI16:1,2011-09-03T13:45:00Z,29.4012,-89.0355,10.0,28.166,11111222 
WAVCIS,ioos:station:WAVCIS:CSI16:1,2011-09-03T14:00:00Z,29.4012,-89.0355,10.0,28.166,11111222 
WAVCIS,ioos:station:WAVCIS:CSI16:1,2011-09-03T14:15:00Z,29.4012,-89.0355,10.0,28.147,11111222 
WAVCIS,ioos:station:WAVCIS:CSI16:1,2011-09-03T14:30:00Z,29.4012,-89.0355,10.0,28.127,11111222 